Regional Weather Roundup
Issued by NWS Albany, NY

Home | Current Version | Previous Version | Text Only | Print | Product List | Glossary On
Versions: 1 2 3 4 5 6 7 8 9 10 11 12 13 14 15 16 17 18 19 20 21 22 23 24 25 26 27 28 29 30 31 32 33 34 35 36 37 38 39 40 41 42 43 44 45 46 47 48 49 50
000
ASUS41 KALY 241110
RWRALY

NEW YORK STATE HOURLY WEATHER ROUNDUP
NATIONAL WEATHER SERVICE ALBANY NY
700 AM EDT WED MAY 24 2017

NOTE: "FAIR" INDICATES FEW OR NO CLOUDS BELOW 12,000 FEET WITH NO
SIGNIFICANT WEATHER AND/OR NO OBSTRUCTIONS TO VISIBILITY.

NYZ032-033-038>043-046>054-057>066-NYZ062>081-082-084-241200-
EAST


CITY           SKY/WX    TMP DP  RH WIND       PRES   REMARKS
ALBANY         CLOUDY    55  51  86 N5        29.77S
GLENS FALLS    NOT AVBL
POUGHKEEPSIE   CLOUDY    54  51  90 CALM      29.74S
NEWBURGH       PTSUNNY   55  54  94 CALM      29.76S
MONTGOMERY     CLOUDY    56  53  90 CALM      29.74S
WHITE PLAINS   LGT RAIN  57  53  86 N3        29.75R
ISLIP          CLOUDY    56  55  97 E6        29.73R
NEW YORK CITY  CLOUDY    58  53  84 NE5       29.74R
CENTRAL PARK   LGT RAIN  57  55  93 NE3       29.76S
$$

NYZ005>009-017-018-044>046-055-056-241200-
CENTRAL


CITY           SKY/WX    TMP DP  RH WIND       PRES   REMARKS
FULTON         PTSUNNY   54  51  90 CALM      29.74S
SYRACUSE       CLOUDY    52  51  97 E6        29.74R
ROME           CLOUDY    50  49  96 SE3       29.77S
ELMIRA         CLOUDY    50  47  89 CALM      29.74R
BINGHAMTON     MOSUNNY   50  47  89 CALM      29.75R
MONTICELLO     CLOUDY    52  48  87 CALM      29.76S
$$

NYZ026>034-041>043-087-241200-
NORTH


CITY           SKY/WX    TMP DP  RH WIND       PRES   REMARKS
WATERTOWN      CLOUDY    51  51 100 E3        29.74S
FORT DRUM      NOT AVBL
OGDENSBURG     FAIR      54  53  96 CALM      29.76S
MASSENA        MOSUNNY   53  51  93 CALM      29.78R
SARANAC LAKE   CLOUDY    45  45 100 CALM      29.78S
PLATTSBURGH    MOSUNNY   50  48  93 CALM      29.78R
$$

NYZ001>004-010>016-019>021-085-241200-
WEST


CITY           SKY/WX    TMP DP  RH WIND       PRES   REMARKS
NIAGARA FALLS  CLOUDY    58  49  72 E6        29.69S
BUFFALO        CLOUDY    58  48  69 E6        29.70R
DUNKIRK        CLOUDY    56  49  77 CALM      29.68F
JAMESTOWN      CLOUDY    54  43  66 S3        29.69F
WELLSVILLE     PTSUNNY   52  44  74 SE3       29.74S
ROCHESTER      CLOUDY    57  51  80 CALM      29.72R
PENN YAN       MOSUNNY   53  48  83 SW3       29.74R
$$

             KEY
       WCI = WIND CHILL INDEX
       VSB = VISIBILITY
       HX  = HEAT INDEX
$$



USA.gov is the U.S. government's official web portal to all federal, state and local government web resources and services.